Location: Newark
(27.9675°N, 86.8869°E)
Time: 05:14:16
(UTC+00:00)

Altair - Pass Details

Date: 24 October 2019
Orbit: 1502 x 1682 km, 47.2° (Epoch: 10 November)

Event Time Altitude Azimuth Distance (km) Brightness Sun altitude
Rises 13:12:23 0° 294° (WNW) 4,908 11.2 -22.1°
Reaches altitude 10° 13:16:33 10° 280° (W) 3,932 10.7 -23.0°
Maximum altitude 13:23:29 21° 236° (SW) 3,130 9.7 -24.5°
Drops below altitude 10° 13:30:27 10° 191° (S) 3,924 9.7 -26.1°
Sets 13:34:40 0° 176° (S) 4,895 10.1 -27.0°
